Date String (YYYY-MM-DD hh:mm:ss) UTC,Instrument flags,Ambient pressure (hPa),Sample flow (lpm),Bypass flow (lpm),Sample temperature (°C),Ambient temperature (°C),ASC tube jacket temperature (°C),LED temperature (°C),Box temperature (°C),Sample RH (%),Span deviation,Mass concentration (μg/m³),Mass concentration (μg/m³),Mass concentration (μg/m³)
DateTimeUTC,F1_M11,P_M11,Q1_M11,Q2_M11,T1_M11,T2_M11,T3_M11,T4_M11,T5_M11,U1_M11,ZSPAN_M11,X0_M11,X2_M11,X1_M11
2022-09-25 04:00:00,,0832.8,5.00,0.00,30.3,29.0,00.0,39.0,32.1,12.3,0000.0,0007.40,0003.15,0002.41
2022-09-25 04:01:00,,0832.9,5.00,0.00,30.3,29.0,00.0,39.0,32.2,12.2,0000.0,0007.61,0003.14,0002.43
2022-09-25 04:02:00,,0832.8,5.01,0.00,30.3,29.0,00.0,39.0,32.2,12.2,0000.0,0008.11,0003.12,0002.44
2022-09-25 04:03:00,,0833.0,5.00,0.00,30.3,29.1,00.0,39.0,32.2,12.2,0000.0,0008.33,0003.14,0002.43
2022-09-25 04:04:00,,0833.1,5.00,0.00,30.3,29.1,00.0,39.0,32.2,12.7,0000.0,0008.38,0003.14,0002.43
2022-09-25 04:05:00,,0833.0,4.99,0.00,30.4,29.2,00.0,39.0,32.3,14.4,0000.0,0008.41,0003.14,0002.45
2022-09-25 04:06:00,,0833.1,5.01,0.00,30.4,29.2,00.0,39.1,32.3,14.8,0000.0,0008.22,0003.17,0002.48
2022-09-25 04:07:00,,0833.1,5.01,0.00,30.4,29.2,00.0,39.1,32.3,14.4,0000.0,0008.29,0003.20,0002.52
2022-09-25 04:08:00,,0833.1,5.00,0.00,30.4,29.2,00.0,39.1,32.3,13.3,0000.0,0008.41,0003.19,0002.52
2022-09-25 04:09:00,,0833.1,5.00,0.00,30.5,29.3,00.0,39.1,32.4,13.0,0000.0,0008.20,0003.20,0002.54
2022-09-25 04:10:00,,0833.1,4.99,0.00,30.5,29.3,00.0,39.1,32.4,12.9,0000.0,0008.10,0003.24,0002.60
2022-09-25 04:11:00,,0833.2,4.99,0.00,30.5,29.3,00.0,39.2,32.4,13.0,0000.0,0008.05,0003.28,0002.63
2022-09-25 04:12:00,,0833.2,5.02,0.00,30.5,29.3,00.0,39.2,32.4,13.2,0000.0,0008.07,0003.32,0002.68
2022-09-25 04:13:00,,0833.2,4.99,0.00,30.5,29.3,00.0,39.2,32.4,13.4,0000.0,0007.69,0003.37,0002.73
2022-09-25 04:14:00,,0833.2,4.99,0.00,30.6,29.4,00.0,39.2,32.5,13.3,0000.0,0007.47,0003.39,0002.77
2022-09-25 04:15:00,,0833.2,5.00,0.00,30.6,29.4,00.0,39.2,32.5,13.1,0000.0,0007.54,0003.43,0002.81
2022-09-25 04:16:00,,0833.3,5.01,0.00,30.6,29.4,00.0,39.2,32.5,13.3,0000.0,0007.71,0003.46,0002.86
2022-09-25 04:17:00,,0833.2,4.99,0.00,30.6,29.4,00.0,39.3,32.5,13.3,0000.0,0007.87,0003.49,0002.88
2022-09-25 04:18:00,,0833.3,5.01,0.00,30.6,29.4,00.0,39.3,32.5,13.7,0000.0,0007.66,0003.51,0002.89
2022-09-25 04:19:00,,0833.4,5.00,0.00,30.6,28.8,00.0,39.3,32.5,13.5,0000.0,0007.43,0003.50,0002.92
2022-09-25 04:20:00,,0833.3,5.00,0.00,30.6,27.2,00.0,39.2,32.4,13.1,0000.0,0007.24,0003.50,0002.96
2022-09-25 04:21:00,,0833.4,5.00,0.00,30.6,26.9,00.0,39.2,32.3,13.1,0000.0,0007.42,0003.53,0002.96
2022-09-25 04:22:00,,0833.4,4.99,0.00,30.4,27.1,00.0,39.1,32.1,13.3,0000.0,0007.41,0003.52,0002.96
2022-09-25 04:23:00,,0833.4,4.99,0.00,30.4,27.4,00.0,39.1,32.0,13.6,0000.0,0007.28,0003.52,0002.95
2022-09-25 04:24:00,,0833.5,5.01,0.00,30.3,27.8,00.0,39.1,32.0,14.1,0000.0,0006.78,0003.49,0002.94
2022-09-25 04:25:00,,0833.7,5.00,0.00,30.3,28.0,00.0,39.1,32.0,13.4,0000.0,0006.91,0003.51,0002.94
2022-09-25 04:26:00,,0833.9,5.00,0.00,30.3,28.3,00.0,39.1,32.1,13.4,0000.0,0006.73,0003.49,0002.95
2022-09-25 04:27:00,,0833.9,5.00,0.00,30.3,28.4,00.0,39.1,32.1,13.6,0000.0,0006.49,0003.47,0002.95
2022-09-25 04:28:00,,0834.0,5.01,0.00,30.3,28.6,00.0,39.1,32.1,13.4,0000.0,0006.08,0003.48,0002.99
2022-09-25 04:29:00,,0834.0,4.99,0.00,30.3,28.7,00.0,39.0,32.1,14.6,0000.0,0006.39,0003.49,0003.02
2022-09-25 04:30:00,,0834.0,5.01,0.00,30.3,28.8,00.0,39.0,32.1,15.2,0000.0,0006.80,0003.54,0003.04
2022-09-25 04:31:00,,0834.0,4.99,0.00,30.3,28.8,00.0,39.0,32.1,15.7,0000.0,0007.59,0003.61,0003.06
2022-09-25 04:32:00,,0834.0,4.99,0.00,30.3,28.9,00.0,39.0,32.2,15.6,0000.0,0008.08,0003.65,0003.10
2022-09-25 04:33:00,,0834.1,5.01,0.00,30.3,28.9,00.0,39.1,32.2,15.3,0000.0,0008.52,0003.75,0003.14
2022-09-25 04:34:00,,0834.1,4.99,0.00,30.3,29.0,00.0,39.1,32.2,14.9,0000.0,0009.34,0003.83,0003.20
2022-09-25 04:35:00,,0834.1,5.00,0.00,30.3,29.0,00.0,39.1,32.2,14.6,0000.0,0009.57,0003.94,0003.26
2022-09-25 04:36:00,,0834.1,5.01,0.00,30.4,29.1,00.0,39.1,32.3,14.4,0000.0,0010.81,0004.01,0003.31
2022-09-25 04:37:00,,0834.1,5.01,0.00,30.4,29.1,00.0,39.1,32.3,13.9,0000.0,0011.94,0004.11,0003.40
2022-09-25 04:38:00,,0834.1,4.99,0.00,30.4,29.1,00.0,39.1,32.3,13.6,0000.0,0012.62,0004.27,0003.51
2022-09-25 04:39:00,,0834.1,4.99,0.00,30.4,29.1,00.0,39.1,32.3,13.5,0000.0,0012.93,0004.41,0003.62
2022-09-25 04:40:00,,0834.2,5.00,0.00,30.4,29.2,00.0,39.1,32.3,13.4,0000.0,0012.89,0004.52,0003.72
2022-09-25 04:41:00,,0834.2,5.01,0.00,30.4,29.2,00.0,39.1,32.3,13.4,0000.0,0012.73,0004.59,0003.84
2022-09-25 04:42:00,,0834.2,5.00,0.00,30.5,29.2,00.0,39.2,32.4,13.3,0000.0,0012.39,0004.69,0003.95
2022-09-25 04:43:00,,0834.2,4.99,0.00,30.5,29.2,00.0,39.2,32.4,13.1,0000.0,0011.90,0004.76,0004.07
2022-09-25 04:44:00,,0834.3,5.02,0.00,30.5,29.2,00.0,39.2,32.4,13.2,0000.0,0011.89,0004.82,0004.17
2022-09-25 04:45:00,,0834.3,4.99,0.00,30.5,29.2,00.0,39.2,32.4,13.1,0000.0,0011.62,0004.88,0004.27
2022-09-25 04:46:00,,0834.3,5.00,0.00,30.5,29.3,00.0,39.2,32.4,13.1,0000.0,0011.98,0004.93,0004.36
2022-09-25 04:47:00,,0834.3,5.02,0.00,30.5,29.3,00.0,39.2,32.4,13.2,0000.0,0011.00,0005.00,0004.45
2022-09-25 04:48:00,,0834.3,4.99,0.00,30.5,29.3,00.0,39.3,32.4,13.2,0000.0,0010.31,0005.09,0004.51
2022-09-25 04:49:00,,0834.3,5.01,0.00,30.6,29.3,00.0,39.3,32.5,13.1,0000.0,0009.82,0005.12,0004.56
2022-09-25 04:50:00,,0834.3,4.99,0.00,30.6,29.3,00.0,39.3,32.5,13.2,0000.0,0010.05,0005.16,0004.60
2022-09-25 04:51:00,,0834.3,4.99,0.00,30.6,29.3,00.0,39.3,32.5,13.1,0000.0,0010.95,0005.21,0004.63
2022-09-25 04:52:00,,0834.3,5.01,0.00,30.6,29.3,00.0,39.3,32.5,13.2,0000.0,0011.60,0005.30,0004.69
2022-09-25 04:53:00,,0834.4,4.99,0.00,30.6,29.3,00.0,39.3,32.5,13.2,0000.0,0011.87,0005.34,0004.73
2022-09-25 04:54:00,,0834.3,5.00,0.00,30.6,29.3,00.0,39.3,32.5,13.3,0000.0,0012.02,0005.37,0004.76
2022-09-25 04:55:00,,0834.4,5.01,0.00,30.6,29.3,00.0,39.3,32.5,13.2,0000.0,0011.80,0005.39,0004.81
2022-09-25 04:56:00,,0834.4,4.99,0.00,30.6,29.3,00.0,39.4,32.5,13.3,0000.0,0011.47,0005.44,0004.85
2022-09-25 04:57:00,,0834.4,5.00,0.00,30.7,29.3,00.0,39.4,32.5,13.2,0000.8,0011.10,0005.49,0004.89
2022-09-25 04:58:00,,0834.5,5.00,0.00,30.7,29.3,00.0,39.4,32.5,13.2,0001.3,0010.98,0005.53,0004.93
2022-09-25 04:59:00,,0834.4,4.99,0.00,30.7,29.3,00.0,39.4,32.6,13.3,0001.3,0010.96,0005.55,0004.97
